KA3ZXO Weather Reports


time (UTC)temp
C
wind
direction
speed
KPH
gust
KPH
rain 1hr
cm
rain 24hr
cm
rain mn
cm
humidity
%
barometer
mb
20260505063923 17 166 0.0 0.0 0.00 0.00 0.00 64 1012.2
20260505062921 17 185 0.0 0.0 0.00 0.00 0.00 64 1012.1
20260505061921 17 192 1.6 1.6 0.00 0.00 0.00 64 1012.1
20260505060917 17 173 1.6 1.6 0.00 0.00 0.00 63 1011.9
20260505055915 17 186 1.6 1.6 0.00 0.00 0.00 61 1012.0
20260505054914 17 216 1.6 1.6 0.00 0.00 0.00 60 1012.1
20260505053910 17 191 1.6 1.6 0.00 0.00 0.00 60 1012.0
20260505052909 17 150 0.0 0.0 0.00 0.00 0.00 59 1011.8
20260505051909 16 191 0.0 1.6 0.00 0.00 0.00 59 1012.0
20260505050904 16 192 0.0 0.0 0.00 0.00 0.00 59 1011.9
20260505040855 17 188 0.0 0.0 0.00 0.00 0.00 53 1011.9
20260505035855 17 188 0.0 0.0 0.00 0.00 0.00 54 1012.0
20260505034855 17 192 0.0 0.0 0.00 0.00 0.00 53 1011.8
20260505033854 17 180 0.0 0.0 0.00 0.00 0.00 53 1011.6
20260505032849 18 190 0.0 0.0 0.00 0.00 0.00 52 1011.7
20260505031848 18 177 0.0 0.0 0.00 0.00 0.00 52 1011.8
20260505030848 18 185 0.0 0.0 0.00 0.00 0.00 52 1011.8
20260505025845 17 180 0.0 0.0 0.00 0.00 0.00 53 1011.8
20260505024841 17 173 0.0 0.0 0.00 0.00 0.00 52 1011.6
20260505023841 17 188 0.0 0.0 0.00 0.00 0.00 53 1011.9
20260505022842 17 189 0.0 0.0 0.00 0.00 0.00 54 1011.8
20260505021842 17 182 0.0 0.0 0.00 0.00 0.00 55 1011.8
20260505020840 17 188 0.0 0.0 0.00 0.00 0.00 57 1011.6
20260505015838 17 180 0.0 0.0 0.00 0.00 0.00 56 1011.9
20260505014838 17 189 0.0 0.0 0.00 0.00 0.00 56 1011.5
20260505013837 17 191 0.0 0.0 0.00 0.00 0.00 56 1011.6
20260505012833 18 172 0.0 0.0 0.00 0.00 0.00 54 1011.5
20260505011832 18 171 0.0 0.0 0.00 0.00 0.00 53 1011.5
20260505010831 18 174 0.0 0.0 0.00 0.00 0.00 52 1011.4
20260505005829 18 168 1.6 1.6 0.00 0.00 0.00 50 1011.5
20260505004824 18 172 0.0 0.0 0.00 0.00 0.00 49 1011.3
20260505003823 18 158 1.6 1.6 0.00 0.00 0.00 49 1011.2
20260505002822 19 168 0.0 0.0 0.00 0.00 0.00 48 1011.1
20260505001818 20 184 0.0 0.0 0.00 0.00 0.00 45 1011.1
20260505000817 21 178 0.0 0.0 0.00 0.00 0.00 43 1011.2
20260504235817 21 183 0.0 0.0 0.00 0.00 0.00 41 1010.9
20260504234817 21 190 0.0 0.0 0.00 0.00 0.00 40 1011.0
20260504233816 22 186 0.0 0.0 0.00 0.00 0.00 39 1010.8
20260504232815 22 172 0.0 0.0 0.00 0.00 0.00 38 1010.8
20260504231815 22 188 0.0 0.0 0.00 0.00 0.00 37 1010.8
20260504230813 23 175 0.0 1.6 0.00 0.00 0.00 36 1010.7
20260504225810 23 198 0.0 1.6 0.00 0.00 0.00 36 1010.7
20260504224809 23 193 0.0 0.0 0.00 0.00 0.00 34 1010.7
20260504223808 25 158 1.6 1.6 0.00 0.00 0.00 34 1010.8
20260504222807 25 192 0.0 0.0 0.00 0.00 0.00 33 1010.8
20260504221801 25 204 1.6 1.6 0.00 0.00 0.00 32 1010.9
20260504220801 25 205 1.6 1.6 0.00 0.00 0.00 33 1011.1
20260504215755 25 195 0.0 0.0 0.00 0.00 0.00 32 1010.8
20260504214753 25 243 1.6 1.6 0.00 0.00 0.00 32 1010.9
20260504213753 26 219 0.0 0.0 0.00 0.00 0.00 32 1010.9
20260504212752 25 151 0.0 1.6 0.00 0.00 0.00 33 1010.9
20260504211752 26 205 1.6 3.2 0.00 0.00 0.00 31 1010.7
20260504210751 26 214 0.0 1.6 0.00 0.00 0.00 30 1010.9
20260504205751 26 220 0.0 0.0 0.00 0.00 0.00 31 1010.9
20260504204747 26 106 4.8 4.8 0.00 0.00 0.00 28 1010.9
20260504203744 26 145 3.2 3.2 0.00 0.00 0.00 27 1010.9
20260504202741 25 150 1.6 1.6 0.00 0.00 0.00 28 1010.9
20260504201735 26 152 3.2 3.2 0.00 0.00 0.00 28 1010.9
20260504200730 27 225 0.0 0.0 0.00 0.00 0.00 28 1011.2
20260504195728 26 228 0.0 1.6 0.00 0.00 0.00 27 1011.4
20260504194727 26 224 0.0 1.6 0.00 0.00 0.00 29 1011.4
20260504193726 26 226 1.6 1.6 0.00 0.00 0.00 28 1011.5
20260504192721 26 228 1.6 3.2 0.00 0.00 0.00 28 1011.5
20260504191718 26 179 0.0 1.6 0.00 0.00 0.00 29 1011.7
20260504190715 26 127 1.6 1.6 0.00 0.00 0.00 29 1011.8
20260504185714 26 218 1.6 1.6 0.00 0.00 0.00 29 1011.8
20260504184713 25 169 0.0 1.6 0.00 0.00 0.00 31 1012.0
20260504183711 25 179 4.8 6.4 0.00 0.00 0.00 29 1012.3
20260504182706 25 289 1.6 1.6 0.00 0.00 0.00 31 1012.4
20260504181707 24 347 1.6 3.2 0.00 0.00 0.00 31 1012.3
20260504180703 23 192 1.6 3.2 0.00 0.00 0.00 33 1012.5
20260504175658 23 226 1.6 1.6 0.00 0.00 0.00 33 1012.7
20260504174659 23 218 1.6 1.6 0.00 0.00 0.00 33 1012.7
20260504173658 22 253 3.2 3.2 0.00 0.00 0.00 34 1012.7
20260504172658 22 227 3.2 4.8 0.00 0.00 0.00 33 1013.1
20260504171657 22 291 3.2 4.8 0.00 0.00 0.00 34 1013.3
20260504170655 21 291 0.0 1.6 0.00 0.00 0.00 35 1013.3
20260504150630 18 332 1.6 1.6 0.00 0.00 0.00 40 1014.1
20260504140621 16 136 0.0 0.0 0.00 0.00 0.00 51 1014.5
20260504130608 14 285 1.6 3.2 0.00 0.00 0.00 54 1014.7
20260504110537 11 180 0.0 0.0 0.00 0.00 0.00 67 1015.7
20260504100522 11 182 0.0 0.0 0.00 0.00 0.00 69 1015.5
20260504081454 11 201 0.0 0.0 0.00 0.00 0.00 67 1015.8
20260504080452 11 187 0.0 0.0 0.00 0.00 0.00 67 1015.9